China Weather Wanrong today hourly
Home / China / Wanrong / Wanrong Hour By Hour Weather - 24hr View

48 Hour View

Time Temp. Wind Dir. Humidity Wind Spd. Precip.
2020-07-21 19:00pm 25°C SE 72% 5km/h 20%
2020-07-21 20:00pm 24°C E 76% 10km/h 20%
2020-07-21 21:00pm 25°C E 78% 6km/h 20%
2020-07-21 22:00pm 25°C E 80% 11km/h 20%
2020-07-21 23:00pm 25°C E 82% 7km/h 20%
2020-07-22 00:00pm 25°C E 82% 9km/h 25%
2020-07-22 01:00pm 24°C E 83% 2km/h 55%
2020-07-22 02:00pm 23°C E 83% 3km/h 47%
2020-07-22 03:00pm 23°C E 86% 9km/h 55%
2020-07-22 04:00pm 23°C E 89% 2km/h 47%
2020-07-22 05:00pm 22°C E 93% 9km/h 55%
2020-07-22 06:00pm 22°C E 92% 11km/h 55%
2020-07-22 07:00pm 22°C E 91% 8km/h 25%
2020-07-22 08:00pm 21°C E 91% 10km/h 20%
2020-07-22 09:00pm 22°C E 89% 9km/h 20%
2020-07-22 10:00pm 22°C E 87% 4km/h 20%
2020-07-22 11:00pm 23°C E 85% 4km/h 20%
2020-07-22 12:00pm 23°C E 85% 11km/h 25%
2020-07-22 13:00pm 23°C E 85% 5km/h 51%
2020-07-22 14:00pm 23°C E 85% 8km/h 47%
2020-07-22 15:00pm 24°C E 85% 1km/h 49%
2020-07-22 16:00pm 25°C E 84% 4km/h 55%
2020-07-22 17:00pm 25°C E 84% 4km/h 55%
2020-07-22 18:00pm 25°C E 84% 11km/h 49%

More Local Information

Hourly Weather Nearby

Bookmark and Share

Become A Member